Location: Luz Observatory
(34.5000°N, 117.2833°W)
Time: 10:55:01
(UTC-07:00)

Daily predictions for brighter satellites

Satellite Brightness Start Highest point End
(mag) Time Altitude Azimuth Time Altitude Azimuth Time Altitude Azimuth
METEOR-M 4.2 19:33:44 10° SSE 19:38:59 61° ENE 19:44:15 10° N
Helios 1A 3.1 19:35:15 10° SSE 19:39:20 57° ENE 19:43:28 10° N
Cosmos 1697 Rocket 3.4 19:36:55 10° SSE 19:41:52 32° ESE 19:46:49 10° NE
Meteor 2-16 Rocket 4.4 19:39:47 10° S 19:45:50 76° E 19:51:54 10° N
Cosmos 1461 2.8 19:43:08 10° NNW 19:47:08 63° ENE 19:51:00 10° SE
OTV 4 0.6 19:48:45 10° WNW 19:51:41 66° SSW 19:54:31 11° ESE
RESURS DK-1 4.4 19:50:47 10° NNE 19:52:34 12° NE 19:54:21 10° E
Cosmos 2278 4.3 19:48:53 10° SSW 19:54:30 65° WNW 20:00:10 10° NNE
USA 186 3.1 19:54:36 10° ESE 19:56:45 19° ENE 19:58:54 10° NNE
OAO 2 Rocket 3.3 19:57:26 10° W 20:02:25 84° N 20:07:11 12° E
ALOS 2.5 19:59:03 10° SSE 20:03:33 49° ENE 20:08:03 10° N
H-2A R/B 3.4 20:00:03 10° SE 20:03:36 35° ENE 20:07:12 10° N
HJ-1C 4.1 20:01:04 10° S 20:04:17 55° W 20:07:31 10° NNW
Cosmos 1980 Rocket 2.9 20:01:01 10° SSE 20:05:54 31° ESE 20:10:49 10° NE
Cosmos 1898 Rocket 4.1 20:08:51 10° N 20:13:44 37° ENE 20:17:25 16° SE
Cosmos 2084 4.0 20:12:40 10° NNW 20:16:33 39° NE 20:19:05 20° ESE
FENGYUN 3A 3.6 20:14:18 10° SSE 20:19:36 72° ENE 20:24:56 10° N
Cosmos 1605 Rocket 4.1 20:14:00 10° S 20:20:20 82° W 20:26:38 10° N
Tiangong 1 2.9 20:17:53 10° NW 20:20:24 22° NNE 20:22:11 14° ENE
Cosmos 1626 Rocket 3.5 20:16:15 10° N 20:20:36 62° E 20:24:53 10° SSE
DELTA 2 R/B (1) 3.6 20:15:05 10° WNW 20:20:40 78° NNE 20:24:35 20° ESE
Cosmos 1975 2.8 20:16:37 10° S 20:20:42 85° E 20:24:49 10° N
Cosmos 1656 3.8 20:15:13 10° SSW 20:20:50 79° WNW 20:26:26 10° NNE
Cosmos 468 Rocket 3.9 20:16:17 10° S 20:21:22 70° ESE 20:26:29 10° NNE
Cosmos 1455 Rocket 4.4 20:17:23 10° SSW 20:21:29 42° W 20:25:38 10° N
Cosmos 841 Rocket 4.2 20:22:03 10° SSE 20:26:33 29° E 20:31:01 10° NE
Cosmos 220 Rocket 3.8 20:23:28 10° NNW 20:27:42 82° ENE 20:31:11 15° SSE
Lacrosse 5 rocket 1.3 20:24:12 10° NW 20:27:51 65° SW 20:30:07 21° SSE
CZ-2D R/B 3.2 20:24:03 10° SSE 20:27:54 85° ENE 20:31:48 10° N
Cosmos 1500 3.1 20:24:58 10° S 20:28:40 63° E 20:32:24 10° NNE
Cosmos 1602 Rocket 3.5 20:26:26 10° N 20:30:54 83° E 20:35:17 10° S
Cosmos 2100 Rocket 4.2 20:25:08 10° SSE 20:31:09 50° E 20:37:06 10° NNE
Cosmos 1814 Rocket 3.9 20:28:54 10° S 20:34:13 77° ESE 20:39:32 10° NNE
EO 1 Delta rocket 4.4 20:31:40 10° N 20:36:31 71° W 20:42:23 10° SSW
CZ-4B DEB 4.2 20:33:29 10° S 20:36:34 39° W 20:39:41 10° NNW
Cosmos 1340 4.2 20:36:26 10° NNE 20:38:50 21° ENE 20:38:50 21° ENE
Cosmos 2227 Rocket 3.1 20:34:38 10° NNW 20:40:04 49° WSW 20:45:27 10° S
Cosmos 2322 Rocket 3.7 20:42:28 17° ENE 20:42:28 17° ENE 20:44:21 10° NE
Cosmos 2061 Rocket 4.0 20:38:32 10° S 20:44:42 59° E 20:50:50 10° NNE
Cosmos 858 Rocket 4.4 20:49:23 10° NNW 20:54:42 82° ENE 20:57:18 31° SSE
Cosmos 2297 Rocket 2.9 20:49:29 10° NNW 20:54:57 52° WSW 21:00:00 12° S
Cosmos 1515 4.1 20:52:47 10° NNW 20:56:35 60° W 20:58:44 24° SSW
Chunghua 1 4.5 20:52:45 10° W 20:56:36 85° N 20:57:09 64° E
Cosmos 1459 Rocket 3.8 20:51:07 10° S 20:57:08 78° E 21:03:14 10° N
Cosmos 2360 4.1 20:51:31 10° S 20:57:08 63° ESE 21:02:48 10° NNE
Cosmos 2058 Rocket 4.3 20:59:39 27° NE 20:59:39 27° NE 21:02:14 10° NNE
Cosmos 1939 Rocket 3.1 21:00:06 49° ENE 21:00:06 49° ENE 21:04:07 10° N
Cosmos 1606 Rocket 3.5 20:59:40 53° SE 21:00:11 58° E 21:04:33 10° NNE
Iridium 4 Rocket 3.8 20:57:30 10° N 21:02:15 57° W 21:06:21 11° SSW
Meteor 1-21 4.4 20:57:33 10° N 21:03:12 52° E 21:04:33 43° ESE
Cosmos 1725 Rocket 4.4 21:02:49 37° E 21:03:19 38° E 21:09:00 10° NNE
Envisat 3.0 21:06:51 51° ESE 21:07:40 57° ENE 21:12:39 10° N
Cosmos 1743 3.0 21:09:30 35° SSW 21:11:01 67° W 21:14:56 10° N
Lacrosse 5 1.7 21:06:16 10° NW 21:11:20 82° NE 21:12:11 62° SE
Cosmos 1937 Rocket 3.5 21:08:24 10° NNW 21:13:42 84° WSW 21:15:21 46° S
SPOT 5 3.6 21:17:27 39° NE 21:17:27 39° NE 21:21:21 10° N
SJ-11-01 4.5 21:20:41 47° SSW 21:21:53 67° WSW 21:26:33 10° NNW
Cosmos 990 Rocket 3.8 21:17:26 10° NNW 21:22:43 86° ENE 21:23:19 70° SSE
Cosmos 1726 Rocket 3.5 21:23:10 74° N 21:23:10 74° N 21:27:12 10° N
CZ-4 DEB 4.5 21:24:33 32° NW 21:24:33 32° NW 21:26:37 10° NNW
ERS-1 Rocket 3.2 21:28:36 48° SSW 21:29:48 64° WSW 21:34:47 10° NNW
RESURS DK-1 3.1 21:26:54 10° NW 21:30:45 48° W 21:30:45 48° W
H-2A R/B 4.3 21:37:08 12° NE 21:37:08 12° NE 21:37:45 10° NNE
SL-08 R/B 4.4 21:34:38 41° S 21:36:58 86° W 21:43:11 10° N
ARGOS 4.3 21:39:15 31° NE 21:39:15 31° NE 21:42:40 10° N
SL-16 R/B 2.8 21:39:37 44° NE 21:39:37 44° NE 21:43:27 10° NNE
Cosmos 1825 Rocket 4.4 21:37:02 10° NNW 21:41:14 47° W 21:41:14 47° W
Cosmos 2016 Rocket 4.5 21:43:07 21° SSW 21:47:13 57° W 21:53:18 10° N
OAO 2 Rocket 3.9 21:42:14 10° W 21:46:08 53° W 21:46:08 53° W
MetOp-B 4.4 21:48:42 60° NNE 21:48:42 60° NNE 21:53:08 10° N
Cosmos 1980 Rocket 3.9 21:44:48 10° WSW 21:49:46 31° WNW 21:54:48 10° N
H-2A R/B 3.5 21:52:11 34° NNW 21:52:11 34° NNW 21:54:38 10° NNW
Milstar 3 Cent rocket 4.1 21:35:32 10° W 21:56:07 59° SSW 21:59:05 49° SSE
Cosmos 2098 Rocket 4.3 21:53:33 38° SSW 21:56:12 66° W 22:02:01 10° N
Cosmos 1125 Rocket 4.4 21:56:54 10° NNW 22:00:25 43° N 22:00:25 43° N
Cosmos 2263 Rocket 3.6 22:13:16 10° N 22:16:14 30° N 22:16:14 30° N
Cosmos 2322 Rocket 3.2 22:24:08 41° WNW 22:24:08 41° WNW 22:29:10 10° N
